This demonstration page uses our WeatherBlox Daily Observations layout. Learn more.

Hourly Observations for July 28, 2016

Temp ( °F °C ) Dew Point ( °F °C ) Humidity (%) Winds ( mph kmh ) Pressure ( in mb ) Visibility ( mi km ) Precip ( " mm )
12:15 am 00:15 Partly Cloudy 69 20.8 67 19.2 91 91 NNE 8 13 30 1016 10 16.0934 0 0
12:35 am 00:35 Clear 69 20.6 66 18.9 90 90 NNE 8 13 30 1016 10 16.0934 0 0
12:55 am 00:55 Clear 68 20.1 65 18.5 91 91 NNE 7 11 29.97 1015 10 16.0934 0 0
1:15 am 01:15 Clear 68 19.8 65 18.3 91 91 NE 8 13 30 1016 10 16.0934 0 0
1:35 am 01:35 Clear 67 19.5 65 18.1 92 92 NNE 6 9 30.03 1017 10 16.0934 0 0
1:55 am 01:55 Clear 67 19.3 64 18 92 92 Calm 30.03 1017 10 16.0934 0 0
2:15 am 02:15 Clear 66 18.9 64 17.6 92 92 Calm 30.03 1017 10 16.0934 0 0
2:35 am 02:35 Clear 65 18.6 64 17.5 93 93 NNW 3 6 30.03 1017 10 16.0934 0 0
2:55 am 02:55 Clear 65 18.4 63 17.3 93 93 N 3 6 30.03 1017 10 16.0934 0 0
3:15 am 03:15 Clear 64 18 63 17 94 94 Calm 30 1016 10 16.0934 0 0
3:35 am 03:35 Clear 64 18 63 17 94 94 Calm 30 1016 10 16.0934 0 0
3:55 am 03:55 Clear 64 17.5 62 16.6 95 95 Calm 30 1016 10 16.0934 0 0
4:15 am 04:15 Clear 63 17.4 62 16.5 94 94 N 3 6 30 1016 10 16.0934 0 0
4:35 am 04:35 Clear 63 17 61 16.2 95 95 WNW 3 6 30 1016 10 16.0934 0 0
4:55 am 04:55 Clear 63 17 61 16.2 95 95 Calm 30 1016 10 16.0934 0 0
5:15 am 05:15 Clear 62 16.8 61 16 95 95 Calm 30 1016 10 16.0934 0 0
5:35 am 05:35 Clear 63 17 61 16.1 94 94 N 3 6 30.03 1017 10 16.0934 0 0
5:55 am 05:55 Clear 62 16.8 61 16 95 95 Calm 30.06 1018 10 16.0934 0 0
6:15 am 06:15 Partly Cloudy 63 17 61 16.1 94 94 N 3 6 30.03 1017 10 16.0934 0 0
6:35 am 06:35 Mostly Cloudy 63 17.4 62 16.4 94 94 Calm 30.03 1017 10 16.0934 0 0
6:55 am 06:55 Mostly Cloudy 63 17.4 61 16.1 92 92 N 3 6 30.03 1017 10 16.0934 0 0
7:15 am 07:15 Partly Cloudy 63 17.2 61 16 93 93 Calm 30.03 1017 10 16.0934 0 0
7:35 am 07:35 Sunny 63 17.2 61 16 93 93 Calm 30.03 1017 10 16.0934 0 0
7:55 am 07:55 Sunny 64 17.9 61 16.1 89 89 NE 7 11 30.03 1017 10 16.0934 0 0
8:15 am 08:15 Sunny 65 18.3 61 16 87 87 NE 3 6 30.06 1018 10 16.0934 0 0
8:35 am 08:35 Sunny 65 18.6 62 16.4 87 87 NE 5 7 30.03 1017 10 16.0934 0 0
8:55 am 08:55 Sunny 66 19.1 62 16.7 86 86 E 3 6 30.06 1018 10 16.0934 0 0
9:15 am 09:15 Sunny 68 20 63 17.1 83 83 E 5 7 30.06 1018 10 16.0934 0 0
9:35 am 09:35 Sunny 69 20.6 63 17.4 82 82 ENE 6 9 30 1016 10 16.0934 0 0
9:55 am 09:55 Sunny 71 21.5 64 18 81 81 ENE 6 9 30 1016 10 16.0934 0 0
10:15 am 10:15 Sunny 72 22.1 65 18.1 78 78 Calm 30 1016 10 16.0934 0 0
10:35 am 10:35 Sunny 73 23 65 18.2 74 74 NNE 3 6 30 1016 10 16.0934 0 0
10:55 am 10:55 Sunny 74 23.3 65 18.5 75 75 N 6 9 30 1016 10 16.0934 0 0
11:15 am 11:15 Sunny 74 23.6 66 18.8 75 75 NNW 5 7 30.03 1017 10 16.0934 0 0
11:35 am 11:35 Sunny 75 24.1 66 18.8 72 72 N 9 15 29.97 1015 10 16.0934 0 0
11:55 am 11:55 Sunny 75 23.7 66 18.9 75 75 NNE 8 13 30 1016 10 16.0934 0 0
12:15 pm 12:15 Sunny 75 23.8 66 18.7 73 73 N 7 11 30 1016 10 16.0934 0 0
12:35 pm 12:35 Sunny 75 23.8 65 18.1 71 71 NNE 6 9 30 1016 10 16.0934 0 0
12:55 pm 12:55 Sunny 75 23.7 66 18.8 74 74 NNE 7 11 30 1016 10 16.0934 0 0
1:15 pm 13:15 Sunny 75 23.7 65 18.4 72 72 E 8 13 29.91 1013 10 16.0934 0 0
1:35 pm 13:35 Sunny 75 23.7 65 18.6 73 73 ESE 7 11 29.91 1013 10 16.0934 0 0
1:55 pm 13:55 Sunny 75 24.1 65 18.2 70 70 ESE 7 11 29.91 1013 10 16.0934 0 0
2:15 pm 14:15 Sunny 76 24.3 64 18 68 68 N 7 11 29.97 1015 10 16.0934 0 0
2:35 pm 14:35 Mostly Cloudy 76 24.4 66 18.7 71 71 NNW 8 13 29.97 1015 10 16.0934 0 0
2:55 pm 14:55 Partly Cloudy 77 25 66 19.1 70 70 NNW 7 11 29.97 1015 10 16.0934 0 0
3:15 pm 15:15 Partly Cloudy with Nearby Thunderstorms 76 24.5 66 18.7 70 70 NNW 7 11 29.97 1015 10 16.0934 0 0
3:35 pm 15:35 Sunny 75 24 66 18.8 73 73 NNW 6 9 29.94 1014 10 16.0934 0 0
3:55 pm 15:55 Mostly Cloudy with Light Rain 73 22.7 67 19.3 81 81 NNW 7 11 29.97 1015 10 16.0934 0 0
4:15 pm 16:15 Cloudy with Light Rain 71 21.5 67 19.3 87 87 NNW 9 15 30 1016 10 16.0934 0.02 0.508
4:35 pm 16:35 Cloudy with Nearby Thunderstorms 69 20.7 66 18.8 89 89 NW 16 26 30 1016 5 8.0467 0.06 1.524
4:55 pm 16:55 Cloudy with Nearby Thunderstorms 68 20 65 18.5 91 91 NNW 6 9 30.03 1017 5 8.0467 0.11 2.794
5:15 pm 17:15 Partly Cloudy with Light Rain 68 20.1 65 18.6 91 91 N 8 13 29.91 1013 10 16.0934 0.02 0.508
5:35 pm 17:35 Sunny with Nearby Thunderstorms 68 20.2 66 18.7 91 91 N 6 9 29.94 1014 10 16.0934 0.02 0.508
5:55 pm 17:55 Sunny 68 20.2 66 18.8 92 92 NE 7 11 29.91 1013 10 16.0934 0.02 0.508
6:15 pm 18:15 Sunny 68 20.2 66 19 93 93 E 7 11 29.91 1013 10 16.0934 0 0
6:35 pm 18:35 Sunny 69 20.6 66 19.1 91 91 NE 5 7 29.94 1014 10 16.0934 0 0
6:55 pm 18:55 Sunny 69 20.8 67 19.5 92 92 N 6 9 29.94 1014 10 16.0934 0 0
7:15 pm 19:15 Partly Cloudy 70 21.1 68 20 93 93 N 3 6 29.94 1014 10 16.0934 0 0
7:35 pm 19:35 Partly Cloudy 72 22.1 69 20.5 91 91 N 6 9 29.97 1015 10 16.0934 0 0
7:55 pm 19:55 Partly Cloudy 72 22.2 69 20.3 89 89 N 7 11 29.94 1014 10 16.0934 0 0
8:15 pm 20:15 Sunny 72 22 67 19.7 87 87 NE 3 6 29.97 1015 10 16.0934 0 0
8:35 pm 20:35 Sunny 70 21.2 67 19.6 91 91 Calm 29.97 1015 10 16.0934 0 0
8:55 pm 20:55 Sunny 69 20.7 67 19.5 93 93 Calm 29.97 1015 10 16.0934 0 0
9:15 pm 21:15 Clear 68 20.2 66 19 93 93 N 5 7 29.97 1015 10 16.0934 0 0
9:35 pm 21:35 Clear 68 20.1 66 18.7 92 92 NNW 3 6 30.03 1017 10 16.0934 0 0
9:55 pm 21:55 Clear 67 19.5 65 18.5 94 94 N 3 6 30.03 1017 10 16.0934 0 0
10:15 pm 22:15 Clear 66 19.1 64 17.9 93 93 Calm 30.03 1017 10 16.0934 0 0
10:35 pm 22:35 Clear 66 18.8 64 17.8 94 94 Calm 30.03 1017 10 16.0934 0 0
10:55 pm 22:55 Clear 65 18.6 64 17.5 93 93 Calm 30.06 1018 10 16.0934 0 0
11:15 pm 23:15 Clear 65 18.4 64 17.5 95 95 Calm 30.03 1017 10 16.0934 0 0
11:35 pm 23:35 Clear 64 18 63 17 94 94 Calm 30.03 1017 10 16.0934 0 0
11:55 pm 23:55 Clear with Nearby Thunderstorms 64 18 63 17.1 95 95 Calm 30.03 1017 7 11.26538 0 0

Powered by AerisWeather